Gastonia, NC

5:06 PM EDT on July 24, 2017 (GMT -0400)
Gastonia Municipal

Weather History for KAKH - February, 2013

Change the Weather History Date:

Monday, February 25, 2013

  Actual Average (KCLT) Record (KCLT)
Temperature  
Mean Temperature 41 °F -  
Max Temperature 43 °F 56 °F 82 °F (1930)
Min Temperature 39 °F 34 °F 7 °F (1967)
Degree Days  
Heating Degree Days 24    
Moisture  
Dew Point 25 °F    
Average Humidity 53    
Maximum Humidity 58    
Minimum Humidity 49    
Precipitation  
Precipitation 0.00 in - - ()
Sea Level Pressure  
Sea Level Pressure 30.10 in    
Wind  
Wind Speed 9 mph (NE)    
Max Wind Speed 13 mph    
Max Gust Speed 21 mph    
Visibility 10 miles    
Events      
Averages and records for this station are not official NWS values.
T = Trace of Precipitation, MM = Missing Value Source: NWS Daily Summary

Daily Weather History Graph

Daily Weather History Graph

Search for Another Location

Airport or City:

Trip Planner

Search our weather history database for the weather conditions in past years. The results will help you decide how hot, cold, wet, or windy it might be!

Date:

Astronomy

Feb. 25, 2013 Rise Set
Actual Time 6:58 AM EST 6:16 PM EST
Civil Twilight 6:33 AM EST 6:42 PM EST
Nautical Twilight 6:03 AM EST 7:11 PM EST
Astronomical Twilight 5:34 AM EST 7:41 PM EST
Moon 6:26 PM EST (2/25) 6:29 AM EST (2/25)
Length of Visible Light 12h 09m
Length of Day
11h 17m
Full, 100% of the Moon is Illuminated
Feb 25
Full
Feb 25
Full
Mar 4
Last Quarter
Mar 11
New
Mar 19
First Quarter

Hourly Weather History & Observations

Time (EST) Temp. Windchill Dew Point Humidity Pressure Visibility Wind Dir Wind Speed Gust Speed Precip Events Conditions
12:54 AM 43.0 °F 39.5 °F 26.1 °F 51% 30.02 in 10.0 mi ENE 5.8 mph - N/A   Clear
1:54 AM 42.1 °F 37.7 °F 26.1 °F 53% 30.03 in 10.0 mi NE 6.9 mph - N/A   Clear
2:54 AM 42.1 °F 36.6 °F 26.1 °F 53% 30.02 in 10.0 mi NE 9.2 mph - N/A   Clear
3:54 AM 42.1 °F 36.1 °F 25.0 °F 51% 30.03 in 10.0 mi NE 10.4 mph - N/A   Clear
4:54 AM 41.0 °F 36.4 °F 25.0 °F 53% 30.05 in 10.0 mi NE 6.9 mph - N/A   Clear
5:54 AM 41.0 °F 35.2 °F 24.1 °F 51% 30.07 in 10.0 mi NE 9.2 mph - N/A   Clear
6:54 AM 39.9 °F 34.5 °F 24.1 °F 53% 30.09 in 10.0 mi NE 8.1 mph - N/A   Clear
7:54 AM 39.9 °F 33.9 °F 25.0 °F 55% 30.13 in 10.0 mi NE 9.2 mph - N/A   Clear
8:54 AM 41.0 °F 34.3 °F 26.1 °F 55% 30.17 in 10.0 mi ENE 11.5 mph - N/A   Clear
9:54 AM 41.0 °F 33.9 °F 26.1 °F 55% 30.18 in 10.0 mi East 12.7 mph - N/A   Clear
10:54 AM 42.1 °F 36.6 °F 27.0 °F 55% 30.17 in 10.0 mi NE 9.2 mph - N/A   Clear
11:54 AM 42.1 °F 35.7 °F 26.1 °F 53% 30.15 in 10.0 mi ENE 11.5 mph - N/A   Clear
12:54 PM 43.0 °F 38.8 °F 26.1 °F 51% 30.15 in 10.0 mi ENE 6.9 mph - N/A   Clear
1:54 PM 43.0 °F 36.4 °F 25.0 °F 49% 30.12 in 10.0 mi NNE 12.7 mph - N/A   Clear
2:54 PM 43.0 °F 37.2 °F 26.1 °F 51% 30.11 in 10.0 mi NE 10.4 mph - N/A   Clear
3:54 PM 43.0 °F 37.7 °F 26.1 °F 51% 30.10 in 10.0 mi NE 9.2 mph - N/A   Clear
4:54 PM 42.1 °F 36.1 °F 26.1 °F 53% 30.09 in 10.0 mi ENE 10.4 mph - N/A   Clear
5:54 PM 41.0 °F 35.8 °F 26.1 °F 55% 30.10 in 10.0 mi NE 8.1 mph - N/A   Partly Cloudy
6:54 PM 39.9 °F 34.5 °F 26.1 °F 58% 30.11 in 10.0 mi ENE 8.1 mph - N/A   Overcast
7:54 PM 39.9 °F 35.1 °F 25.0 °F 55% 30.11 in 10.0 mi East 6.9 mph - N/A   Overcast
8:54 PM 39.9 °F 32.9 °F 24.1 °F 53% 30.12 in 10.0 mi ENE 11.5 mph - N/A   Overcast
9:54 PM 39.9 °F 33.9 °F 24.1 °F 53% 30.11 in 10.0 mi ENE 9.2 mph 18.4 mph N/A   Overcast
10:54 PM 39.0 °F 31.8 °F 24.1 °F 55% 30.10 in 10.0 mi NE 11.5 mph - N/A   Overcast
11:54 PM 39.0 °F 31.4 °F 24.1 °F 55% 30.08 in 10.0 mi NE 12.7 mph 20.7 mph N/A   Overcast